Los Angeles, CA

7:30 AM PDT on October 01, 2016 (GMT -0700)
Los Angeles International

Weather History for KLAX - January, 2012

Change the Weather History Date:

Friday, January 20, 2012

  Actual Average Record
Temperature  
Mean Temperature 55 °F 57 °F  
Max Temperature 61 °F 65 °F 85 °F (1976)
Min Temperature 49 °F 49 °F 36 °F (1947)
Degree Days  
Heating Degree Days 10 8  
Month to date heating degree days 120 171  
Since 1 July heating degree days 661 613  
Cooling Degree Days 0 0  
Month to date cooling degree days 10 0  
Year to date cooling degree days 10 0  
Growing Degree Days 4 (Base 50)    
Moisture  
Dew Point 48 °F    
Average Humidity 77    
Maximum Humidity 93    
Minimum Humidity 60    
Precipitation  
Precipitation T in 0.08 in 2.63 in (1969)
Month to date precipitation 0.01 1.78  
Year to date precipitation 0.01 1.78  
Since 1 July precipitation 3.01  
Sea Level Pressure  
Sea Level Pressure 30.09 in    
Wind  
Wind Speed 5 mph (SW)    
Max Wind Speed 12 mph    
Max Gust Speed 15 mph    
Visibility 8 miles    
Events Fog , Rain    
T = Trace of Precipitation, MM = Missing Value Source: NWS Daily Summary

Daily Weather History Graph

Daily Weather History Graph

Search for Another Location

Airport or City:

Trip Planner

Search our weather history database for the weather conditions in past years. The results will help you decide how hot, cold, wet, or windy it might be!

Date:

Astronomy

Jan. 20, 2012 Rise Set
Actual Time 6:57 AM PST 5:12 PM PST
Civil Twilight 6:30 AM PST 5:38 PM PST
Nautical Twilight 5:59 AM PST 6:09 PM PST
Astronomical Twilight 5:30 AM PST 6:39 PM PST
Moon 4:36 AM PST (1/20) 2:51 PM PST (1/20)
Length of Visible Light 11h 08m
Length of Day
10h 14m
Waning Crescent, 7% of the Moon is Illuminated
Jan 20
Waning Crescent
Jan 22
New
Jan 30
First Quarter
Feb 7
Full
Feb 14
Last Quarter

Hourly Weather History & Observations

Time (PST) Temp. Dew Point Humidity Pressure Visibility Wind Dir Wind Speed Gust Speed Precip Events Conditions
12:53 AM 48.9 °F 44.1 °F 83% 30.07 in 10.0 mi East 5.8 mph - N/A   Scattered Clouds
1:53 AM 48.9 °F 45.0 °F 86% 30.08 in 9.0 mi ESE 3.5 mph - N/A   Scattered Clouds
2:53 AM 48.9 °F 46.0 °F 90% 30.09 in 8.0 mi East 5.8 mph - N/A   Mostly Cloudy
3:13 AM 50.0 °F 46.4 °F 87% 30.08 in 7.0 mi East 5.8 mph - N/A   Mostly Cloudy
3:53 AM 50.0 °F 46.9 °F 89% 30.07 in 7.0 mi ESE 4.6 mph - N/A   Mostly Cloudy
4:53 AM 50.0 °F 46.9 °F 89% 30.07 in 7.0 mi East 4.6 mph - N/A   Mostly Cloudy
5:53 AM 52.0 °F 46.9 °F 83% 30.09 in 7.0 mi NE 6.9 mph - N/A   Mostly Cloudy
6:47 AM 51.8 °F 44.6 °F 76% 30.10 in 6.0 mi East 3.5 mph - N/A Fog Patches of Fog
6:53 AM 51.1 °F 45.0 °F 80% 30.10 in 6.0 mi Calm Calm - N/A Fog Patches of Fog
7:53 AM 53.1 °F 46.9 °F 80% 30.12 in 6.0 mi ENE 3.5 mph - N/A   Haze
8:53 AM 55.0 °F 46.9 °F 74% 30.14 in 7.0 mi East 3.5 mph - N/A   Mostly Cloudy
9:53 AM 57.0 °F 46.9 °F 69% 30.15 in 8.0 mi Calm Calm - N/A   Mostly Cloudy
10:53 AM 59.0 °F 46.0 °F 62% 30.14 in 7.0 mi NW 4.6 mph - N/A   Mostly Cloudy
11:10 AM 59.0 °F 46.4 °F 63% 30.14 in 7.0 mi West 6.9 mph - N/A   Mostly Cloudy
11:48 AM 59.0 °F 46.4 °F 63% 30.11 in 10.0 mi West 8.1 mph - N/A   Mostly Cloudy
11:53 AM 59.0 °F 46.0 °F 62% 30.11 in 10.0 mi WNW 3.5 mph - N/A   Mostly Cloudy
12:53 PM 60.1 °F 46.0 °F 60% 30.08 in 10.0 mi WSW 9.2 mph - N/A   Mostly Cloudy
1:53 PM 59.0 °F 46.0 °F 62% 30.07 in 10.0 mi West 9.2 mph - N/A   Mostly Cloudy
2:53 PM 59.0 °F 46.9 °F 64% 30.06 in 10.0 mi West 9.2 mph - N/A   Mostly Cloudy
3:53 PM 57.9 °F 48.0 °F 70% 30.06 in 10.0 mi West 8.1 mph - N/A   Scattered Clouds
4:53 PM 57.0 °F 48.0 °F 72% 30.07 in 10.0 mi WSW 6.9 mph - N/A   Scattered Clouds
5:53 PM 57.0 °F 48.9 °F 74% 30.08 in 10.0 mi West 6.9 mph - N/A   Scattered Clouds
6:53 PM 55.9 °F 48.9 °F 77% 30.08 in 10.0 mi WSW 5.8 mph - N/A   Scattered Clouds
7:53 PM 57.0 °F 50.0 °F 77% 30.09 in 10.0 mi West 5.8 mph - N/A   Overcast
8:53 PM 57.0 °F 51.1 °F 81% 30.08 in 10.0 mi Calm Calm - N/A   Overcast
9:17 PM 57.2 °F 51.8 °F 82% 30.07 in 10.0 mi Calm Calm - N/A   Overcast
9:29 PM 57.2 °F 51.8 °F 82% 30.07 in 10.0 mi Variable 3.5 mph - N/A   Overcast
9:53 PM 57.0 °F 51.1 °F 81% 30.09 in 10.0 mi SSW 3.5 mph - N/A   Overcast
10:36 PM 57.2 °F 51.8 °F 82% 30.10 in 7.0 mi Calm Calm - 0.00 in Rain Light Rain
10:53 PM 57.0 °F 51.1 °F 81% 30.10 in 7.0 mi Calm Calm - 0.00 in   Overcast
11:53 PM 55.0 °F 52.0 °F 89% 30.08 in 5.0 mi SSE 4.6 mph - 0.00 in   Overcast
11:59 PM 55.4 °F 51.8 °F 88% 30.08 in 6.0 mi SSE 4.6 mph - N/A   Overcast